Wind_Speed
20 24 21 18 19 15 12 12 12 11 10 10 10 11 10 10 10 11 11 11 12 11 11 10 9 9 9 9 8 8 7 7 7 8 8 8 8 8 8 8 8 9 9 10 11 11 10 9 9 8 8 9 9 9 9 9 9 8 8 8 9 9 8 8 8 8 8 8 8 7 7 7 7 7 6 6 5 5 5 5 6 6 7 8 9
18 21 21 19 19 16 13 12 11 11 10 9 10 10 10 10 10 11 11 11 11 11 10 10 10 9 9 8 8 8 9 9 9 8 8 8 8 9 9 9 9 9 9 10 11 11 10 9 9 9 8 8 9 10 10 10 9 9 8 9 9 9 9 9 9 9 9 9 8 8 7 8 8 7 7 6 6 6 6 6 6 7 8 9 10
19 20 22 21 17 12 10 10 11 11 8 7 8 9 10 10 10 11 12 12 12 11 11 10 10 10 10 9 8 8 9 9 9 10 9 8 8 9 10 9 10 9 9 9 10 10 9 9 8 8 8 8 8 9 10 10 9 9 9 9 9 9 10 10 10 10 10 9 9 8 8 8 8 8 7 7 7 6 6 6 7 7 8 9 10
18 16 17 20 16 10 7 7 10 11 7 7 8 9 9 10 10 11 11 11 11 11 11 11 11 11 10 9 9 8 8 9 9 10 10 9 8 9 9 9 9 9 8 8 9 9 8 8 7 8 8 8 8 9 9 9 9 9 9 9 9 10 10 10 10 10 10 9 9 9 9 9 8 8 8 8 7 7 7 7 7 8 9 10 10
12 11 15 18 17 11 7 4 6 9 8 9 9 9 9 9 10 10 10 9 10 10 10 10 10 10 10 10 10 9 9 9 10 10 10 10 9 8 7 8 8 8 8 8 8 8 7 6 6 6 7 8 8 9 9 10 10 10 10 9 9 10 10 10 10 10 10 10 10 10 9 9 9 9 9 9 8 8 8 8 8 8 9 10 11
13 15 23 13 14 9 6 5 7 8 9 10 10 9 9 8 8 8 8 8 9 9 9 10 10 10 11 11 11 11 11 11 11 11 11 11 10 9 7 7 8 8 8 7 7 6 5 5 5 6 8 9 10 10 10 10 11 11 11 10 10 10 10 10 10 10 10 10 10 10 9 10 9 9 9 9 9 9 9 9 9 9 10 10 11
16 19 21 9 6 6 7 14 15 10 10 11 10 9 9 9 8 7 7 8 8 9 9 10 10 11 11 12 13 13 13 13 12 12 12 12 11 11 10 8 8 8 8 7 6 5 4 4 5 7 9 10 10 10 10 10 11 11 11 11 10 11 11 11 11 10 10 10 10 10 9 9 9 9 9 9 9 9 9 10 10 10 11 11 11
16 19 18 12 7 9 14 18 17 12 11 11 10 10 10 10 9 8 8 8 8 9 9 10 10 11 11 12 14 14 15 15 15 15 15 14 13 12 12 11 9 9 8 7 6 5 5 5 5 6 7 9 10 10 10 10 11 11 11 11 11 11 11 11 11 11 11 11 11 10 10 9 9 9 9 9 9 10 10 10 10 10 11 11 12
17 19 17 15 13 13 16 16 15 12 11 12 12 11 10 10 9 8 8 8 8 9 9 10 10 11 11 12 13 14 15 16 16 16 17 17 16 15 14 14 12 10 9 8 7 6 5 4 4 5 6 8 9 10 10 10 10 11 11 11 11 11 11 11 11 11 12 11 11 10 10 10 9 9 9 9 9 10 10 10 11 11 11 12 12
18 18 16 15 15 15 15 15 14 12 11 13 14 12 10 9 8 7 7 7 8 8 9 10 11 11 12 13 13 14 15 15 16 17 17 18 18 18 18 17 16 14 12 10 8 6 5 5 4 5 6 7 8 10 11 10 10 11 12 12 12 11 12 12 12 11 11 11 10 10 10 10 10 10 9 10 10 10 11 11 11 11 12 12 12
15 15 15 15 16 16 15 14 13 13 13 14 15 13 10 8 7 7 6 6 7 7 8 10 11 12 12 13 13 14 15 15 16 16 17 18 18 19 19 20 19 18 17 14 10 8 8 7 7 7 8 9 9 10 11 11 10 10 11 12 12 12 12 12 12 11 11 11 11 10 10 10 10 10 10 10 11 11 11 11 11 11 12 12 13
14 15 15 16 16 16 15 14 14 15 14 14 16 15 11 8 7 7 6 5 5 6 7 9 10 11 11 12 13 13 14 14 15 16 17 17 18 18 18 19 20 20 19 17 13 10 9 9 9 9 10 10 10 10 11 11 9 9 11 12 12 12 12 12 11 11 12 11 11 11 11 10 10 10 10 11 11 11 11 11 11 11 12 12 12
15 15 16 16 17 16 16 15 18 18 16 14 16 14 10 8 8 7 6 5 4 5 6 7 8 8 9 11 12 12 13 13 14 15 16 16 17 17 17 18 19 20 19 18 15 12 10 9 9 10 11 11 10 11 11 10 9 9 10 12 12 12 12 12 12 12 12 11 11 11 11 11 11 11 11 11 12 12 12 12 11 12 12 12 12
18 17 17 17 17 17 17 17 19 17 14 14 15 13 10 9 9 8 6 5 4 5 5 6 6 7 7 8 10 12 13 14 14 15 15 16 16 17 17 17 18 20 20 18 17 15 12 10 9 10 10 10 10 10 10 10 9 9 11 12 12 12 12 12 12 12 12 11 11 11 11 11 11 11 11 11 12 12 12 12 12 12 12 12 12
19 18 17 16 16 16 18 16 14 12 12 13 15 13 11 11 10 9 7 6 5 5 5 6 6 6 7 7 8 11 12 13 14 15 15 16 16 16 16 16 17 19 21 20 18 16 14 11 9 9 9 10 10 11 10 8 9 10 11 11 11 11 11 12 12 12 12 11 11 11 11 11 11 11 11 11 12 12 12 12 12 12 13 13 13
18 16 14 14 14 15 15 11 9 11 11 13 15 14 13 13 12 10 9 7 6 6 6 6 6 6 6 6 7 9 12 14 15 15 16 16 15 15 15 14 15 17 19 19 17 16 14 12 10 10 10 10 11 11 9 7 8 9 10 10 10 10 11 11 11 11 11 11 11 11 11 11 11 11 11 11 12 12 12 13 13 13 13 13 13
17 15 14 14 14 14 10 5 9 12 13 16 17 15 15 15 13 12 10 9 8 7 7 6 5 5 5 5 6 7 11 15 16 16 15 15 15 15 14 14 15 15 16 16 15 14 13 12 11 11 11 11 11 10 8 7 9 10 9 9 9 10 10 11 11 11 10 10 10 10 10 10 10 10 10 11 12 12 13 13 13 13 13 13 13
17 17 17 15 14 10 4 7 11 12 15 19 20 18 18 16 15 13 11 11 9 9 7 6 4 4 4 3 5 6 7 11 16 18 16 16 16 16 17 16 15 13 12 11 11 11 10 10 10 10 11 11 11 11 9 8 9 9 9 9 9 10 11 11 11 10 10 9 9 9 9 9 10 10 10 11 12 12 13 13 13 13 13 13 13
17 18 17 15 10 3 5 12 12 13 19 22 22 20 19 18 16 14 13 11 10 9 8 6 5 4 3 2 2 3 4 5 11 16 18 18 17 16 18 18 14 10 8 7 7 8 8 8 9 10 10 11 12 11 10 9 8 8 8 9 9 10 11 11 11 11 10 9 9 9 9 9 9 9 10 11 12 12 13 13 14 13 13 13 13
14 15 13 10 4 6 9 12 13 16 22 23 21 20 18 17 16 14 13 11 10 9 8 7 6 5 4 3 2 1 2 3 3 8 12 14 12 10 12 13 10 7 6 7 8 8 9 9 10 11 11 11 12 11 10 10 9 9 9 9 9 10 10 11 11 12 11 10 9 9 9 10 10 9 10 11 11 12 13 13 14 14 13 13 13
10 10 9 6 1 7 11 10 14 19 22 20 18 18 17 17 15 14 12 12 11 10 9 8 7 7 6 5 3 2 1 1 2 2 3 6 7 7 7 7 6 7 8 9 10 10 11 11 11 11 11 10 11 10 9 10 10 10 10 10 10 10 10 11 11 12 12 11 10 10 10 10 10 10 10 10 11 12 13 13 14 14 14 14 13
7 9 9 6 5 5 11 10 14 19 18 17 17 17 17 16 15 13 13 12 11 10 9 9 8 7 7 5 5 3 2 2 2 2 2 3 4 4 5 6 6 7 8 9 9 9 10 11 11 11 10 9 9 9 8 9 10 10 10 11 11 11 11 11 11 11 12 11 11 11 10 10 10 10 10 11 11 12 13 13 13 13 13 14 14
9 9 9 6 6 7 12 12 14 16 16 17 18 17 17 15 14 13 13 12 11 10 10 9 8 7 7 6 5 5 5 4 3 3 4 4 4 4 5 6 6 7 8 8 8 8 9 9 9 9 9 9 9 9 8 9 10 10 10 11 11 11 11 11 11 11 11 11 11 11 11 11 10 10 10 11 11 12 12 13 12 13 13 14 14
12 14 12 7 5 7 10 12 14 15 15 16 15 14 13 12 12 12 12 12 11 11 10 9 9 8 7 6 6 6 6 5 5 5 5 6 6 6 6 6 7 8 8 9 9 9 9 10 10 9 9 9 9 9 9 9 10 10 10 11 11 11 11 11 11 11 11 11 11 11 11 11 10 10 10 10 11 12 12 12 12 12 13 13 14
10 14 13 8 5 7 9 11 11 11 11 10 11 11 11 11 11 11 11 12 11 11 10 9 8 7 7 6 6 6 6 6 5 5 6 6 7 8 8 8 8 8 9 9 9 9 10 11 11 11 10 10 10 11 10 10 11 11 11 11 11 11 11 11 11 11 11 11 11 11 11 11 10 10 10 10 11 12 13 13 12 13 13 13 13
8 12 12 9 4 9 10 10 9 9 9 9 10 11 11 11 11 11 11 11 11 10 10 9 8 7 7 7 7 7 7 7 7 6 6 6 7 8 10 10 9 9 9 9 8 8 9 10 10 11 12 12 12 12 12 11 12 12 12 11 11 11 11 11 11 11 11 12 11 11 10 10 10 10 10 11 12 13 13 13 13 13 13 13 14
8 10 10 9 3 7 9 9 9 10 11 11 11 11 11 11 11 11 11 11 11 10 10 9 8 8 7 7 7 7 7 8 8 8 7 7 6 7 8 9 10 10 10 9 9 9 10 10 10 11 12 13 13 13 13 12 12 13 13 12 12 12 12 12 12 13 13 12 12 12 11 10 10 10 11 11 12 13 13 13 13 13 13 13 13
6 8 9 8 3 5 7 8 8 9 10 10 11 11 11 10 10 10 10 11 10 10 10 9 9 8 7 6 6 6 6 7 8 8 8 8 7 7 7 8 9 10 10 10 10 10 11 12 12 12 12 13 14 15 15 14 14 13 13 13 13 13 13 13 13 14 14 14 14 13 12 11 10 10 11 12 13 14 14 13 13 13 13 12 13
6 6 7 5 2 4 7 7 7 7 8 9 10 11 12 11 10 10 11 11 11 11 10 10 9 8 7 5 5 5 6 7 8 9 10 10 10 9 9 9 10 11 11 11 11 11 11 12 13 13 13 14 15 17 17 17 16 15 15 15 14 14 13 14 14 15 16 16 15 15 14 13 12 12 12 13 14 15 14 14 14 14 13 13 13
6 5 3 1 2 5 6 7 7 8 9 10 11 13 14 13 12 12 12 12 12 12 11 10 10 9 7 5 5 7 8 9 10 11 11 11 11 11 11 11 12 12 13 13 13 13 13 12 13 14 15 16 17 18 18 18 18 17 16 16 16 15 15 15 16 17 17 17 16 16 15 15 14 14 14 14 15 16 15 15 15 14 14 13 13
6 4 3 2 4 6 7 7 8 8 9 10 11 12 14 14 14 14 14 13 13 13 12 12 12 11 9 7 7 9 11 12 13 14 14 14 13 13 13 13 14 14 15 15 15 15 15 15 15 16 16 16 17 17 18 19 19 19 18 18 18 17 17 17 18 19 19 19 18 17 17 17 16 16 15 16 16 17 17 16 15 15 14 14 13
5 5 4 5 7 8 9 10 9 9 9 9 9 10 12 13 13 13 13 13 12 12 13 14 14 13 12 11 11 11 12 14 15 16 17 17 18 17 17 17 17 17 17 17 17 17 17 17 17 17 18 18 18 18 19 19 20 21 21 21 21 20 20 20 21 21 21 21 21 20 19 19 19 17 17 17 17 18 18 17 17 16 15 14 14
5 6 6 6 9 11 12 13 12 11 11 11 12 12 14 14 14 13 14 14 13 13 14 15 16 16 17 17 15 14 14 15 16 18 19 20 20 21 21 20 20 19 19 19 19 19 20 20 19 19 19 19 19 19 20 20 20 21 22 23 24 23 23 23 24 24 24 23 23 22 21 21 20 19 18 18 18 18 18 18 18 17 16 15 14
6 7 7 8 9 12 14 14 15 14 14 14 15 16 18 19 19 19 18 19 19 18 18 18 19 20 21 20 18 17 16 16 17 18 19 21 21 22 22 21 21 21 21 21 22 22 22 22 22 21 21 21 21 21 21 22 22 22 22 23 24 25 25 25 25 25 26 25 24 23 22 22 21 21 20 19 19 19 19 19 19 18 17 16 15
7 8 9 10 11 12 13 15 15 16 16 17 17 19 20 22 23 23 23 23 22 21 21 20 21 22 23 22 20 19 18 18 18 19 20 21 22 22 22 22 22 23 23 23 23 24 24 25 25 25 25 24 24 24 24 24 24 24 24 24 25 25 25 26 26 26 26 25 25 24 23 23 22 23 22 20 20 20 20 20 20 20 19 17 15
9 9 10 11 12 13 14 16 17 17 18 19 20 21 22 23 24 24 25 25 24 23 22 22 22 23 23 23 22 21 20 20 20 20 21 22 22 23 23 23 24 25 25 25 25 26 26 26 27 27 27 27 27 27 26 26 26 26 26 26 26 26 26 27 28 28 26 25 25 24 24 24 24 24 23 21 21 20 21 21 21 21 20 18 16
10 11 12 13 14 15 16 17 18 19 20 20 21 22 23 24 24 24 25 25 25 24 23 23 23 23 23 23 23 22 22 22 22 22 23 23 24 24 25 25 26 27 27 27 27 28 28 28 28 28 29 29 29 29 29 28 27 28 28 28 28 28 27 27 28 29 28 26 26 25 25 25 25 25 24 23 22 21 22 22 23 22 20 18 16
11 12 12 13 13 14 15 16 17 18 19 20 21 22 23 23 24 25 25 25 25 24 24 24 24 24 24 24 24 24 24 24 25 25 25 26 26 26 27 28 28 29 29 29 29 30 30 30 30 30 30 30 30 31 31 30 29 29 30 30 30 29 29 29 29 30 29 29 28 27 27 27 27 26 26 25 24 23 24 24 24 23 21 19 17
10 11 11 11 12 13 13 15 15 16 17 18 20 21 22 23 24 24 25 25 25 25 25 25 25 25 26 26 26 26 26 27 27 28 28 29 29 29 30 30 31 31 31 32 32 32 33 33 33 33 32 32 32 33 33 32 31 31 31 32 32 31 30 30 30 30 30 30 29 29 29 28 28 27 27 26 26 26 26 26 25 24 23 21 19
9 10 10 11 12 13 14 15 16 17 18 19 20 21 22 23 24 25 25 26 26 26 27 27 27 27 27 28 28 28 29 29 30 30 31 31 32 32 32 33 33 33 33 34 34 35 35 35 35 36 36 35 35 35 35 35 34 33 33 33 33 32 31 31 30 30 31 31 31 31 30 30 29 28 28 27 27 27 27 27 27 26 24 23 21
10 11 12 13 14 15 15 16 17 18 19 20 21 22 23 24 25 26 27 27 28 28 28 29 29 29 29 29 30 30 30 31 32 32 33 33 34 34 34 34 34 35 35 35 36 36 37 37 37 38 38 38 38 38 37 37 36 36 35 34 34 34 33 32 32 32 32 33 34 33 32 31 30 30 29 28 27 28 28 28 28 27 26 26 24
12 12 13 14 14 15 16 16 17 19 20 21 22 23 24 25 26 26 27 28 29 29 30 30 31 31 31 31 31 31 31 32 32 33 33 34 34 34 34 34 35 35 35 35 36 37 37 38 39 38 39 39 40 41 40 39 39 38 38 36 35 36 35 34 33 33 34 35 35 35 35 34 32 32 31 29 28 28 29 29 29 29 28 27 27
12 12 12 12 13 14 14 15 16 17 19 20 21 23 24 26 27 27 28 29 30 31 31 32 32 32 32 32 32 32 32 32 33 33 33 34 34 34 34 34 35 35 35 35 35 36 36 37 37 38 38 38 38 40 41 42 42 41 40 38 38 38 37 36 35 35 35 35 36 37 37 36 35 34 33 31 30 30 30 30 31 30 29 29 28
11 11 12 13 13 14 15 15 16 17 18 19 20 22 23 24 26 27 28 29 30 31 32 33 33 33 33 33 32 32 32 32 33 33 33 34 34 34 34 35 35 36 35 35 35 35 36 36 36 36 37 37 37 38 40 42 43 43 42 41 41 40 38 38 38 37 36 36 37 37 37 37 36 35 34 33 32 32 32 32 33 32 31 29 29
11 11 12 13 14 15 16 16 17 18 18 20 21 23 23 24 25 26 27 28 29 30 31 32 33 33 33 33 32 32 32 32 32 32 32 33 33 34 34 35 36 36 35 35 35 35 35 35 34 34 34 35 36 37 39 40 41 41 42 42 42 41 39 40 40 39 39 38 37 37 37 37 36 36 35 34 34 34 34 34 34 33 32 30 29
11 12 14 15 16 17 17 18 18 18 19 21 23 24 25 26 27 27 28 29 29 30 30 31 31 32 32 32 31 31 31 32 32 32 32 32 33 34 34 35 36 36 36 35 34 33 32 30 30 30 31 31 32 34 37 39 39 38 40 41 42 42 41 41 41 39 40 39 38 37 38 38 37 36 36 36 35 36 35 35 35 34 32 31 30
13 14 15 16 17 19 20 21 21 22 23 24 25 26 27 28 28 29 29 30 31 31 31 30 30 31 31 30 31 31 31 32 32 32 33 33 33 33 34 34 34 35 35 33 31 28 27 26 26 26 28 29 30 31 34 37 37 37 38 39 40 41 41 42 41 41 40 40 40 39 38 38 37 37 36 37 37 37 37 36 36 36 34 33 32
16 17 17 18 19 21 22 24 26 26 27 27 27 28 28 29 29 29 30 30 31 31 31 30 30 30 30 30 30 31 31 31 32 32 32 32 31 31 31 31 31 31 32 30 28 26 24 24 25 26 28 29 31 31 33 35 35 36 36 36 37 38 40 41 41 42 41 40 40 41 40 38 37 37 37 38 38 38 37 37 36 36 35 34 34
17 18 19 20 22 23 25 27 28 29 29 28 27 27 28 28 28 28 29 29 29 29 29 29 29 29 29 29 29 30 30 30 30 30 30 30 30 31 31 31 30 30 29 28 26 26 25 25 26 27 29 31 32 33 34 35 36 35 35 36 35 35 37 39 40 41 42 41 40 40 41 41 39 38 37 38 39 38 38 37 36 35 35 35 34
18 19 20 22 23 24 26 27 28 29 28 26 25 26 27 26 25 25 26 26 27 27 27 28 28 28 28 28 28 28 29 29 29 29 30 30 31 31 31 31 31 29 29 28 27 26 26 27 28 29 30 32 33 34 35 36 37 36 36 36 34 33 33 35 36 38 39 40 39 39 41 42 40 39 39 38 38 38 38 38 37 36 34 34 33
17 18 20 21 20 21 22 21 21 21 22 22 22 24 25 25 24 24 24 24 24 25 26 26 27 27 28 28 28 29 29 29 30 30 30 30 30 30 31 31 30 29 29 28 28 28 28 28 29 30 31 32 33 35 35 36 36 37 37 36 35 33 32 32 33 34 35 36 37 38 40 42 40 40 40 40 38 38 38 37 37 37 35 33 33
Wind_Direction
267 259 263 265 250 238 228 215 206 206 211 215 222 228 231 236 239 244 245 247 249 250 251 252 256 257 258 258 260 266 274 279 282 280 275 271 268 267 264 265 267 270 272 271 269 267 267 270 274 281 289 294 297 298 297 297 300 303 303 300 297 295 291 286 280 276 274 274 275 277 281 284 284 282 281 284 291 301 307 312 318 324 328 328 327
279 271 271 275 261 241 226 213 205 205 215 224 227 228 227 232 237 242 243 245 245 245 245 244 246 248 251 252 255 257 261 266 271 275 279 278 274 271 267 265 264 263 265 267 268 267 268 271 276 281 285 290 297 299 298 299 301 304 303 301 299 297 294 288 282 277 274 274 277 280 283 283 281 281 284 287 292 296 301 309 317 322 324 324 325
291 288 267 266 269 245 225 211 202 203 215 229 232 227 223 225 230 235 237 238 238 238 237 237 237 238 241 242 247 251 255 259 262 264 267 273 277 275 269 264 261 260 261 266 270 270 270 273 279 284 287 289 293 295 296 300 303 305 304 303 302 299 294 289 285 280 277 278 282 284 284 282 282 283 285 286 289 293 300 309 316 319 319 321 323
298 302 265 259 266 257 238 204 195 202 211 230 237 231 225 225 227 231 234 237 239 240 239 237 236 235 238 239 242 247 252 255 258 260 259 261 266 271 268 264 258 257 257 261 266 268 272 278 285 290 295 297 298 299 299 303 305 305 304 302 300 297 294 290 287 284 283 284 284 284 284 284 285 285 285 286 289 293 300 307 313 316 318 320 322
301 334 306 268 251 251 235 194 197 209 214 225 236 237 233 233 233 235 239 245 250 252 253 251 249 247 247 246 244 243 245 250 252 255 257 256 259 266 271 270 262 257 254 252 255 258 263 269 280 296 307 312 313 313 311 311 308 305 303 301 297 293 290 288 287 285 284 284 284 286 288 289 289 288 288 289 291 295 299 304 311 315 318 319 320
286 319 330 292 236 235 233 274 281 240 225 227 235 242 241 244 243 243 246 250 257 263 266 265 263 261 260 257 253 247 243 244 248 251 254 255 259 267 273 278 275 264 254 247 245 245 245 250 266 290 303 308 309 310 313 314 309 305 304 301 296 291 287 284 282 282 284 286 287 289 291 292 293 293 293 295 297 300 303 307 311 315 316 316 317
285 305 336 340 238 246 287 310 307 273 247 243 242 245 247 251 252 252 252 253 258 265 269 270 267 265 263 261 259 255 249 244 245 247 249 252 256 259 260 264 270 262 253 243 232 228 237 257 270 281 289 293 295 296 301 305 303 302 302 300 296 291 287 283 282 282 284 285 286 288 291 293 295 297 298 302 304 307 309 311 312 313 313 313 314
299 310 335 347 322 301 309 318 319 297 266 258 251 248 250 250 251 252 255 256 258 262 267 270 269 265 262 260 258 256 253 248 245 245 246 248 249 248 244 242 246 250 247 239 229 233 250 267 278 283 286 286 288 290 294 299 302 303 299 295 292 289 287 286 285 283 283 284 285 288 290 293 296 298 302 306 309 311 311 311 310 309 309 310 312
316 320 329 332 325 316 316 319 324 316 285 270 259 253 253 251 250 249 252 256 259 262 266 269 269 267 263 258 255 252 251 249 246 245 246 247 247 244 238 232 229 232 235 234 232 238 249 262 281 289 289 290 292 290 289 292 301 306 302 294 289 285 285 284 283 282 283 285 287 290 292 294 296 299 304 308 309 310 309 307 305 305 306 307 310
324 325 326 320 317 319 322 318 316 317 300 276 262 257 256 255 253 250 252 253 258 264 266 268 270 269 265 259 253 250 248 248 247 245 246 248 249 248 243 237 229 225 224 224 224 226 234 247 266 277 280 285 291 291 288 287 294 303 304 297 290 285 282 280 279 281 283 285 288 290 293 295 298 302 307 309 309 307 305 303 301 303 304 306 309
331 325 322 317 318 318 318 315 311 310 302 281 264 257 252 250 248 249 249 250 259 264 267 269 271 272 270 265 259 254 251 250 251 249 248 248 251 252 249 243 235 225 220 219 220 225 234 242 250 255 258 265 275 282 282 282 287 294 297 295 289 284 280 279 281 285 286 287 290 292 295 297 301 307 311 311 308 304 302 301 300 302 304 306 310
335 326 324 322 322 320 314 307 308 306 296 281 261 250 243 238 238 241 242 246 256 262 270 272 273 275 273 270 264 260 257 256 256 255 252 252 253 255 253 244 235 226 220 219 221 224 231 239 244 247 249 252 260 268 272 275 281 286 288 286 282 279 278 281 285 287 287 290 293 295 298 301 306 311 312 311 308 304 303 302 301 301 304 307 311
340 334 332 328 323 320 316 305 305 301 284 269 252 240 232 226 226 225 226 224 230 253 265 270 272 274 276 275 269 263 260 258 258 257 256 257 257 258 255 244 233 225 221 222 224 220 222 232 238 240 242 243 252 261 266 271 277 279 277 276 275 277 279 282 283 285 289 293 297 299 303 307 311 313 313 311 308 307 307 305 303 303 305 308 310
342 341 337 328 321 318 318 312 307 292 263 252 238 224 215 209 205 197 192 194 206 236 248 255 262 269 277 279 273 264 259 257 255 255 255 255 256 258 257 250 238 229 224 224 226 222 218 222 229 232 234 239 250 259 263 266 271 271 269 271 275 280 282 285 286 289 293 296 299 303 307 311 314 315 315 313 311 311 310 308 306 305 307 308 310
339 338 335 323 317 315 314 314 301 265 234 233 220 203 199 195 186 177 176 182 189 208 224 236 248 259 268 274 274 262 254 252 252 251 249 248 250 253 257 255 246 237 230 226 227 227 220 214 218 222 229 239 247 254 258 264 267 267 268 273 278 282 285 288 290 293 295 298 303 308 311 315 318 317 315 313 314 314 313 311 308 307 307 308 310
333 329 328 317 308 307 310 306 267 228 212 208 198 191 192 188 179 172 175 178 181 194 213 226 238 253 258 271 281 264 248 242 242 242 241 242 243 246 251 252 246 240 235 233 230 225 214 208 210 215 224 237 245 249 257 267 266 265 268 275 280 282 284 286 288 290 295 301 306 310 315 318 318 316 313 314 315 315 314 312 310 309 308 308 310
328 322 322 316 305 302 305 272 218 200 195 191 184 189 190 184 177 174 178 180 185 195 207 221 231 254 263 276 290 280 254 241 238 239 238 239 240 240 242 244 246 245 238 232 226 218 209 206 210 214 222 235 245 247 253 260 261 264 268 274 279 281 283 284 287 291 295 301 306 311 314 316 315 314 315 316 316 315 314 311 309 308 307 307 309
326 325 325 316 304 298 265 193 192 188 192 187 180 188 189 182 179 177 181 184 190 195 201 214 219 244 262 281 298 308 285 254 241 240 242 243 245 242 241 244 245 238 225 217 215 215 215 216 218 220 225 236 245 247 249 253 258 266 271 276 281 284 286 287 289 290 293 298 303 308 311 313 314 316 318 318 316 315 312 309 307 306 306 306 307
328 328 324 314 297 265 180 180 185 194 194 186 182 187 187 183 182 181 184 188 195 196 200 210 216 236 248 249 282 323 329 292 250 241 242 245 248 245 242 239 230 216 209 215 224 230 231 234 236 236 237 243 249 252 254 253 256 265 272 277 281 285 289 291 291 291 292 296 300 304 309 311 313 317 319 317 315 313 310 307 306 306 306 306 307
328 328 324 321 286 179 165 175 190 202 194 186 185 188 187 185 185 186 188 193 197 198 202 206 214 227 244 253 260 300 351 351 280 244 236 237 239 237 230 222 213 212 219 229 238 244 245 246 248 247 245 248 252 256 259 259 258 260 264 270 275 281 287 291 293 292 292 293 297 303 308 309 310 314 316 314 312 310 307 306 306 306 306 306 308
325 339 346 3 10 170 162 178 201 198 188 184 188 191 190 188 188 190 191 195 199 201 204 206 214 220 230 246 253 267 312 342 325 288 240 234 238 242 236 228 232 244 245 245 245 245 244 243 246 248 246 247 252 255 259 262 262 262 262 265 270 276 282 286 289 290 291 293 296 301 304 305 306 309 310 308 306 305 304 304 305 305 307 307 308
337 351 1 32 47 128 148 174 194 186 184 190 194 193 190 190 191 193 195 199 202 205 208 209 215 221 224 232 241 245 248 262 287 310 293 260 249 248 248 248 248 250 254 256 254 252 250 247 246 249 250 250 255 256 259 263 264 266 266 267 268 270 274 277 282 285 289 291 294 296 297 298 299 301 302 301 301 300 300 301 304 306 306 306 308
21 16 14 39 67 103 135 161 183 185 193 196 194 192 191 193 194 197 201 203 206 209 211 209 211 216 217 221 231 235 236 243 254 263 267 266 259 246 241 241 241 247 255 260 263 264 263 259 254 254 254 254 258 261 262 264 266 267 267 268 268 268 269 273 277 281 285 288 289 289 290 291 292 294 295 296 297 297 297 299 302 305 305 305 307
38 35 30 36 77 112 142 167 185 191 192 189 189 192 195 198 200 203 206 207 209 212 211 208 207 209 210 214 222 229 231 231 237 246 254 260 262 256 252 249 247 249 252 258 262 263 266 265 262 259 259 258 259 263 264 264 267 266 264 265 265 266 269 272 277 280 283 284 284 285 285 284 284 286 289 292 292 292 293 296 301 303 303 304 307
32 31 31 30 83 129 154 167 173 178 178 182 188 193 199 203 206 210 212 213 214 214 215 214 211 210 212 215 220 226 230 229 224 230 239 249 255 255 252 252 255 255 253 253 252 255 260 263 265 263 263 266 265 265 264 262 262 262 262 262 264 266 268 272 277 280 281 280 280 281 281 281 281 284 285 286 287 288 290 293 297 300 301 303 306
15 22 30 31 93 148 159 160 163 172 177 187 195 198 204 207 210 215 219 222 222 221 219 217 214 210 210 212 217 222 227 231 227 225 226 235 250 253 250 248 254 261 262 259 252 248 251 258 264 264 262 264 267 268 267 265 263 263 264 264 266 268 270 272 276 279 279 278 275 272 274 277 281 284 285 285 284 286 288 291 294 296 298 301 304
360 16 34 38 80 164 169 168 176 183 183 190 197 202 207 209 212 216 222 227 228 227 223 215 207 199 200 205 211 217 222 226 229 230 229 234 245 250 248 244 247 256 261 261 257 254 255 258 260 260 259 259 263 267 268 268 268 270 270 269 269 270 271 272 273 274 274 274 271 267 265 268 274 280 283 284 283 284 285 289 292 295 296 299 302
347 12 37 47 73 161 169 169 178 184 181 184 191 198 200 202 208 213 218 222 223 222 213 199 187 181 181 186 197 211 222 225 227 228 230 236 243 248 246 242 243 248 251 253 256 259 261 262 259 255 253 253 259 265 268 268 268 270 270 270 270 270 271 272 272 272 270 269 268 266 263 262 265 271 277 278 279 281 282 285 289 292 294 297 299
345 9 35 52 99 166 170 170 180 190 191 191 195 197 196 201 213 221 222 215 208 201 194 186 180 176 173 180 200 214 223 228 228 226 227 231 236 241 243 241 242 244 247 249 252 255 258 260 260 256 253 253 258 264 268 268 265 264 265 267 267 267 269 269 270 269 268 266 265 266 265 263 263 265 270 273 276 277 279 283 287 291 293 294 296
334 350 13 59 176 201 198 189 190 196 200 203 204 204 205 212 219 221 219 208 197 193 197 200 195 185 181 194 225 235 233 231 230 228 226 227 230 235 240 243 245 247 249 250 251 252 252 254 257 259 259 258 259 261 264 264 263 262 261 262 263 265 266 266 266 265 266 265 264 265 266 266 266 267 269 272 275 276 278 281 284 287 290 292 293
314 314 295 229 205 212 212 203 198 196 197 198 202 207 211 216 217 217 215 209 204 207 214 215 206 198 200 220 247 251 241 234 231 229 228 229 233 238 244 249 251 255 257 257 257 256 254 253 255 258 260 260 259 259 259 260 261 262 261 259 260 262 264 265 265 265 265 265 264 264 266 267 268 269 272 274 276 277 278 279 281 284 287 290 291
297 291 270 236 219 216 213 211 210 210 210 207 205 208 208 209 211 213 211 209 208 212 219 220 217 218 230 249 264 262 250 240 234 230 230 232 236 242 246 250 252 255 258 260 261 262 261 258 256 257 258 259 259 258 258 258 260 263 264 263 262 261 262 263 264 265 265 265 265 264 265 267 268 268 270 273 276 278 279 280 281 282 285 287 289
281 276 261 238 226 222 220 222 225 225 226 225 222 218 215 213 215 214 212 215 221 229 235 235 236 240 248 257 263 260 254 246 240 237 235 236 239 242 245 247 249 251 255 258 260 261 263 262 260 260 260 259 259 259 259 259 259 261 263 264 264 263 261 261 262 263 264 264 264 264 264 266 268 268 267 270 273 275 278 279 280 281 282 284 287
266 262 254 240 229 225 226 230 233 233 232 232 232 230 227 227 228 229 228 232 238 245 248 247 248 250 252 254 254 252 251 249 246 243 241 241 242 244 247 249 250 251 252 255 256 258 259 260 261 262 263 262 261 260 260 260 260 259 260 261 263 264 263 261 260 261 262 262 262 262 263 264 266 267 267 270 272 274 275 276 277 278 279 280 284
251 245 242 237 232 228 227 230 234 235 234 233 235 236 235 234 235 236 238 240 242 245 247 248 249 251 252 251 249 247 247 248 249 249 247 246 245 247 249 252 254 254 253 253 254 255 256 257 259 261 263 264 263 262 260 260 261 261 261 261 262 262 262 261 260 258 259 261 262 262 263 264 265 266 267 270 273 275 275 275 276 276 278 279 283
236 232 230 230 230 229 228 229 231 233 234 234 234 236 237 238 237 238 239 240 241 241 242 243 245 247 248 247 246 244 244 245 247 250 251 251 251 251 251 252 254 255 255 253 253 253 254 254 256 258 261 263 263 264 263 262 262 262 263 263 263 262 261 261 262 261 259 259 260 261 262 264 265 266 267 269 272 274 275 276 276 276 278 282 286
224 223 223 224 225 227 229 229 230 231 233 235 236 237 238 240 241 240 240 239 239 238 238 238 239 241 244 245 245 244 244 246 247 249 251 253 255 255 254 254 253 253 253 253 253 253 253 253 254 255 257 259 261 262 263 263 262 262 262 262 262 262 261 261 262 264 263 261 261 260 261 262 264 266 268 269 270 271 273 275 275 276 278 282 286
217 220 222 224 225 227 230 232 233 233 234 235 237 238 239 240 242 242 242 241 239 238 237 236 236 238 240 243 245 246 246 247 248 250 251 253 254 256 257 256 255 254 254 254 254 254 254 255 254 254 254 256 258 258 259 260 260 260 260 261 260 259 260 260 260 262 264 264 263 262 261 261 262 265 267 268 268 269 271 272 273 274 277 279 281
215 218 222 226 229 230 231 233 235 236 236 236 237 238 238 239 240 241 242 242 242 241 240 240 240 240 241 243 245 246 248 248 249 249 251 252 253 254 256 256 256 256 255 255 255 255 256 256 257 257 255 254 254 256 256 257 258 257 258 260 260 260 259 260 260 261 263 264 264 264 263 262 262 263 264 265 266 266 267 269 271 273 275 276 278
215 221 226 230 234 236 236 236 237 238 239 239 239 240 240 241 242 243 243 244 245 246 246 246 246 245 245 245 245 246 247 248 249 249 249 250 252 253 254 255 257 258 257 257 256 256 257 257 258 258 258 256 253 253 254 255 255 255 256 257 259 259 259 259 259 260 261 263 263 263 263 263 263 263 264 265 265 265 265 266 268 270 273 274 276
224 230 235 238 239 241 242 242 242 243 243 243 243 244 244 245 246 247 248 248 248 249 249 249 249 249 249 248 248 248 248 248 249 250 250 250 251 253 254 255 256 258 259 258 258 257 257 257 258 257 258 259 258 255 254 254 254 254 255 255 257 258 258 257 257 257 259 261 262 263 263 263 264 264 264 265 266 267 266 265 265 267 269 272 274
229 235 240 243 246 248 249 251 251 251 251 251 251 250 250 251 251 252 252 253 253 253 253 252 252 252 252 251 251 251 250 250 250 251 252 252 252 253 255 256 257 258 259 259 260 260 259 259 260 260 259 259 261 261 259 257 255 254 254 254 256 257 258 257 256 256 256 257 259 261 262 263 263 264 265 266 267 268 268 268 267 266 267 270 273
230 236 242 248 253 257 259 260 260 260 260 260 259 258 257 256 256 256 256 256 256 256 256 256 256 256 255 255 254 253 252 252 251 251 252 253 254 254 255 256 258 258 259 260 262 263 263 263 262 263 262 262 262 263 262 261 259 257 255 254 255 256 257 258 256 255 255 256 257 258 260 261 263 264 266 267 268 268 268 268 268 268 268 271 275
235 241 248 253 257 261 264 266 267 266 266 265 264 263 262 260 259 259 259 258 258 258 258 258 258 258 257 257 256 255 254 254 253 253 254 255 256 257 258 258 259 260 262 263 265 265 265 265 264 264 264 264 264 264 263 262 262 261 259 258 256 256 258 258 258 256 255 255 256 257 258 260 261 262 264 265 266 266 266 266 267 268 270 272 275
245 252 257 261 263 265 266 268 269 269 269 268 266 264 264 263 262 261 260 260 259 260 260 260 260 259 259 258 258 257 256 256 256 256 256 256 258 259 260 261 262 264 266 267 268 268 269 269 268 267 266 266 266 266 266 265 264 263 263 261 260 259 258 258 259 258 257 256 256 257 258 259 260 260 261 261 261 262 264 265 266 268 270 273 274
262 266 269 270 271 271 270 270 270 271 272 272 271 269 267 264 264 263 263 262 262 261 262 262 262 261 260 259 259 259 259 259 259 259 259 259 260 261 261 262 263 265 267 269 270 271 272 272 273 273 273 271 269 269 269 269 269 268 266 265 263 262 261 259 259 258 258 258 258 258 258 259 259 259 260 259 259 259 261 263 265 266 268 269 271
272 275 276 277 278 278 277 276 275 275 275 275 276 275 272 269 268 267 266 265 264 264 263 263 262 262 261 260 259 259 260 261 261 261 261 261 262 262 263 263 263 263 265 268 269 269 270 271 274 276 277 277 275 274 273 273 275 274 272 270 268 266 264 262 261 259 258 258 260 259 258 257 258 259 260 260 259 258 259 261 263 264 266 266 267
276 278 281 283 283 283 282 280 278 278 277 276 276 276 274 272 270 270 269 268 265 264 263 262 260 259 259 259 259 259 260 260 260 261 261 261 262 263 264 264 264 263 263 265 265 266 268 272 275 277 279 280 279 278 276 276 276 276 276 276 275 272 270 267 264 262 259 258 260 261 260 257 257 258 259 260 259 259 259 259 260 262 264 265 266
280 280 282 283 281 280 280 279 277 277 276 274 273 273 273 271 270 269 269 268 265 262 261 260 258 256 256 257 258 259 259 259 260 260 260 261 262 263 264 265 266 265 264 263 262 265 270 274 279 282 283 283 281 279 277 276 276 276 276 277 278 277 276 274 271 268 264 261 260 262 262 260 259 258 258 259 260 260 260 260 260 260 261 263 267
280 279 281 282 281 280 280 279 276 275 273 270 269 271 272 271 269 268 269 268 265 262 260 259 258 257 257 257 258 259 260 260 260 259 260 262 264 265 266 266 266 264 263 262 262 266 271 276 280 284 284 283 282 281 278 277 276 275 275 274 276 278 279 279 278 275 272 267 263 262 263 263 262 261 260 258 259 261 261 261 261 260 259 260 265
280 281 283 285 284 282 281 281 278 275 271 268 267 270 272 272 271 270 270 269 268 265 263 261 260 261 261 262 262 262 262 261 261 261 261 263 265 267 267 266 264 262 261 260 262 266 271 276 281 283 284 283 282 281 281 280 278 275 274 273 273 275 277 279 280 279 277 273 268 265 264 264 264 265 264 261 261 262 262 263 262 262 260 258 260
Height
5825 5823 5823 5824 5823 5823 5824 5824 5824 5825 5827 5828 5829 5829 5830 5830 5831 5832 5833 5835 5836 5837 5838 5839 5839 5840 5841 5842 5842 5843 5844 5845 5846 5846 5847 5847 5848 5848 5849 5849 5849 5850 5850 5851 5852 5852 5853 5853 5853 5853 5854 5854 5854 5854 5854 5854 5853 5853 5852 5852 5852 5852 5852 5852 5852 5852 5852 5852 5851 5851 5851 5850 5850 5850 5850 5849 5849 5849 5849 5848 5848 5848 5848 5847 5847
5824 5823 5825 5825 5823 5823 5825 5825 5824 5825 5827 5828 5829 5829 5829 5830 5831 5832 5833 5834 5835 5836 5837 5838 5838 5839 5840 5841 5842 5842 5843 5844 5845 5845 5846 5847 5847 5848 5848 5848 5849 5849 5850 5851 5851 5852 5852 5852 5852 5852 5853 5853 5853 5853 5854 5853 5853 5852 5852 5852 5852 5852 5852 5851 5851 5851 5851 5851 5851 5850 5850 5849 5849 5849 5849 5849 5849 5849 5848 5848 5848 5847 5847 5847 5847
5823 5822 5823 5824 5824 5824 5825 5825 5826 5826 5828 5829 5830 5830 5830 5830 5831 5832 5833 5834 5834 5835 5836 5837 5838 5838 5839 5840 5841 5841 5842 5843 5844 5844 5845 5846 5846 5847 5847 5848 5848 5849 5849 5850 5850 5851 5851 5851 5851 5852 5852 5852 5852 5853 5853 5853 5852 5852 5852 5852 5852 5851 5851 5851 5851 5851 5851 5851 5850 5850 5849 5849 5849 5849 5849 5849 5849 5848 5848 5848 5847 5847 5847 5846 5846
5822 5820 5819 5822 5824 5824 5825 5827 5827 5827 5829 5830 5831 5831 5831 5831 5832 5832 5833 5833 5834 5835 5836 5836 5837 5838 5838 5839 5839 5840 5841 5842 5842 5843 5844 5845 5845 5846 5847 5847 5848 5848 5848 5849 5850 5850 5850 5851 5851 5851 5851 5852 5852 5852 5852 5852 5852 5852 5851 5851 5851 5851 5851 5851 5851 5851 5851 5851 5850 5850 5849 5849 5849 5849 5849 5849 5848 5848 5847 5847 5847 5846 5846 5846 5845
5821 5819 5819 5819 5821 5823 5824 5827 5828 5828 5828 5830 5831 5831 5831 5831 5831 5832 5833 5833 5834 5835 5836 5836 5837 5837 5837 5837 5838 5838 5839 5840 5841 5842 5843 5843 5844 5845 5845 5846 5847 5847 5848 5848 5849 5850 5850 5850 5851 5851 5851 5851 5851 5851 5852 5852 5852 5851 5851 5851 5851 5851 5850 5850 5851 5851 5850 5850 5850 5849 5849 5849 5849 5849 5848 5848 5848 5847 5847 5846 5846 5846 5845 5845 5845
5820 5820 5818 5816 5819 5822 5823 5826 5827 5827 5827 5828 5829 5830 5830 5830 5831 5831 5832 5833 5833 5834 5835 5835 5835 5836 5836 5836 5836 5837 5837 5838 5839 5839 5840 5842 5843 5844 5844 5845 5846 5846 5847 5848 5848 5849 5849 5850 5850 5850 5850 5850 5850 5851 5851 5851 5851 5851 5850 5850 5850 5850 5850 5850 5850 5850 5850 5849 5849 5849 5849 5849 5848 5848 5848 5848 5847 5847 5846 5846 5845 5845 5845 5844 5844
5821 5820 5818 5817 5819 5821 5822 5824 5824 5825 5826 5826 5827 5828 5829 5829 5830 5830 5831 5832 5833 5833 5834 5834 5834 5834 5834 5835 5835 5835 5836 5836 5837 5837 5839 5840 5841 5842 5843 5844 5845 5846 5846 5847 5847 5848 5849 5849 5849 5849 5849 5850 5850 5850 5851 5851 5851 5850 5850 5850 5850 5849 5849 5849 5849 5849 5849 5849 5849 5849 5848 5848 5848 5848 5847 5847 5846 5846 5846 5845 5845 5844 5844 5844 5843
5821 5820 5819 5819 5820 5820 5821 5821 5821 5822 5824 5825 5826 5827 5828 5829 5829 5830 5830 5831 5832 5832 5833 5833 5833 5833 5833 5834 5834 5835 5835 5835 5836 5836 5837 5838 5840 5841 5842 5842 5844 5845 5846 5846 5847 5847 5847 5848 5848 5848 5848 5849 5849 5849 5850 5850 5850 5850 5850 5849 5849 5849 5849 5849 5849 5849 5849 5849 5848 5848 5848 5848 5847 5847 5847 5846 5846 5845 5845 5845 5844 5844 5844 5843 5842
5820 5819 5819 5819 5819 5819 5819 5819 5820 5821 5822 5824 5825 5826 5827 5828 5828 5829 5829 5830 5831 5831 5832 5832 5832 5832 5832 5833 5833 5833 5834 5834 5835 5835 5836 5837 5838 5839 5840 5841 5842 5843 5844 5845 5845 5846 5846 5846 5846 5847 5847 5848 5848 5848 5848 5849 5850 5850 5849 5849 5848 5848 5848 5848 5848 5848 5849 5848 5848 5848 5847 5847 5846 5846 5846 5845 5845 5845 5844 5844 5844 5844 5843 5842 5842
5819 5818 5818 5818 5817 5818 5818 5818 5819 5820 5821 5823 5824 5825 5826 5827 5828 5828 5829 5829 5830 5830 5831 5831 5831 5831 5831 5831 5832 5832 5832 5833 5833 5834 5834 5835 5836 5838 5839 5840 5841 5842 5843 5844 5844 5844 5844 5845 5845 5845 5846 5846 5847 5847 5847 5848 5849 5849 5849 5848 5848 5848 5848 5847 5847 5847 5848 5848 5847 5847 5846 5846 5845 5845 5845 5844 5844 5844 5844 5844 5843 5843 5842 5842 5841
5818 5818 5817 5816 5816 5816 5817 5817 5818 5819 5820 5821 5823 5824 5825 5826 5826 5827 5828 5828 5829 5829 5830 5830 5830 5830 5830 5831 5831 5831 5831 5832 5832 5833 5833 5834 5835 5836 5837 5839 5839 5840 5841 5842 5842 5842 5843 5843 5844 5844 5845 5845 5845 5846 5846 5847 5848 5848 5848 5847 5847 5847 5847 5847 5846 5846 5847 5847 5846 5846 5846 5845 5845 5844 5844 5843 5843 5843 5843 5843 5843 5842 5842 5841 5840
5817 5816 5815 5815 5815 5814 5815 5816 5817 5818 5819 5820 5821 5823 5824 5825 5826 5826 5827 5828 5828 5829 5829 5829 5829 5829 5830 5830 5830 5831 5831 5832 5832 5832 5833 5833 5834 5835 5836 5837 5837 5838 5839 5840 5841 5841 5841 5842 5843 5843 5844 5844 5844 5844 5845 5845 5846 5847 5847 5846 5846 5846 5846 5845 5845 5846 5846 5846 5845 5845 5845 5845 5844 5844 5843 5843 5843 5843 5842 5842 5842 5842 5841 5840 5840
5816 5814 5814 5814 5814 5814 5814 5814 5815 5815 5816 5818 5819 5821 5822 5823 5825 5826 5826 5827 5827 5828 5828 5829 5829 5829 5829 5829 5829 5830 5830 5831 5831 5832 5832 5833 5833 5834 5834 5835 5836 5837 5838 5839 5839 5840 5840 5841 5842 5842 5843 5843 5843 5843 5843 5844 5845 5846 5846 5845 5845 5845 5845 5845 5845 5845 5845 5845 5845 5845 5844 5844 5844 5843 5843 5843 5842 5842 5842 5842 5841 5841 5840 5840 5839
5815 5814 5813 5812 5812 5812 5812 5811 5811 5812 5814 5815 5817 5819 5821 5822 5824 5825 5825 5826 5827 5827 5828 5828 5828 5828 5828 5828 5829 5829 5830 5830 5830 5831 5831 5832 5833 5833 5834 5834 5835 5836 5837 5838 5838 5839 5839 5840 5841 5842 5842 5842 5842 5842 5842 5844 5844 5844 5844 5844 5844 5844 5844 5844 5844 5844 5845 5845 5844 5844 5844 5843 5843 5843 5842 5842 5842 5842 5841 5841 5841 5840 5840 5839 5838
5814 5813 5812 5811 5810 5810 5809 5808 5809 5810 5811 5813 5816 5818 5820 5822 5822 5823 5824 5825 5826 5826 5826 5827 5827 5827 5827 5827 5828 5828 5828 5829 5829 5830 5830 5831 5832 5833 5833 5834 5835 5835 5836 5837 5838 5838 5838 5839 5840 5841 5841 5842 5841 5841 5842 5843 5843 5843 5843 5843 5843 5843 5843 5843 5844 5844 5844 5844 5844 5843 5843 5842 5842 5842 5842 5841 5841 5841 5841 5840 5840 5840 5839 5838 5838
5813 5811 5811 5809 5808 5807 5807 5806 5807 5808 5810 5812 5815 5818 5819 5821 5821 5822 5823 5824 5825 5825 5825 5826 5826 5826 5826 5827 5827 5827 5827 5827 5828 5828 5829 5830 5831 5832 5832 5833 5834 5835 5836 5837 5838 5838 5838 5839 5839 5840 5841 5841 5840 5840 5841 5842 5842 5841 5841 5842 5842 5842 5842 5843 5843 5843 5843 5843 5843 5842 5842 5842 5841 5841 5841 5841 5841 5840 5840 5840 5839 5839 5838 5838 5837
5811 5810 5809 5808 5806 5805 5805 5805 5806 5807 5808 5811 5814 5817 5818 5819 5820 5821 5822 5823 5824 5825 5825 5825 5825 5826 5826 5826 5827 5826 5826 5826 5827 5828 5828 5829 5830 5831 5832 5832 5833 5834 5835 5836 5837 5837 5837 5838 5838 5839 5840 5839 5839 5839 5840 5841 5840 5840 5840 5841 5841 5841 5842 5842 5842 5842 5842 5842 5842 5841 5841 5841 5841 5840 5840 5840 5840 5840 5839 5839 5838 5838 5837 5837 5836
5809 5807 5807 5805 5804 5803 5803 5803 5805 5806 5808 5810 5812 5815 5816 5818 5818 5819 5821 5822 5823 5824 5825 5825 5825 5825 5826 5826 5826 5826 5825 5825 5826 5827 5827 5828 5829 5830 5831 5832 5832 5833 5834 5835 5836 5836 5837 5837 5838 5838 5838 5838 5838 5838 5839 5839 5839 5839 5839 5839 5840 5840 5841 5841 5841 5841 5841 5841 5841 5841 5840 5840 5840 5839 5839 5839 5839 5839 5839 5838 5838 5837 5836 5836 5835
5807 5806 5804 5803 5801 5801 5801 5802 5803 5805 5808 5809 5811 5813 5815 5816 5818 5819 5820 5821 5823 5824 5825 5824 5824 5825 5825 5825 5825 5825 5825 5825 5825 5826 5827 5828 5828 5829 5830 5830 5831 5832 5832 5833 5834 5835 5836 5837 5837 5837 5838 5838 5837 5838 5838 5838 5838 5838 5838 5838 5839 5839 5840 5840 5840 5840 5840 5840 5840 5840 5839 5839 5839 5839 5838 5838 5838 5838 5838 5837 5837 5836 5836 5835 5834
5807 5806 5803 5801 5800 5799 5800 5802 5803 5806 5808 5809 5811 5813 5815 5816 5818 5819 5820 5821 5823 5824 5824 5824 5824 5824 5824 5824 5825 5825 5825 5825 5826 5826 5827 5827 5828 5829 5829 5830 5830 5830 5831 5832 5833 5835 5835 5836 5837 5837 5837 5837 5837 5837 5838 5837 5837 5837 5837 5838 5838 5838 5838 5839 5839 5839 5839 5839 5839 5839 5839 5838 5838 5838 5838 5837 5837 5837 5837 5836 5836 5835 5835 5834 5833
5808 5806 5803 5801 5800 5798 5799 5802 5804 5806 5807 5809 5812 5813 5815 5816 5818 5819 5820 5821 5822 5823 5823 5823 5823 5823 5824 5824 5824 5824 5824 5825 5826 5826 5827 5828 5828 5829 5829 5829 5829 5830 5831 5832 5833 5833 5834 5835 5836 5836 5836 5836 5836 5836 5837 5837 5837 5837 5837 5837 5837 5837 5837 5838 5838 5838 5838 5838 5838 5838 5838 5838 5837 5837 5837 5836 5836 5836 5836 5835 5835 5834 5834 5833 5832
5807 5805 5803 5802 5801 5799 5799 5802 5804 5806 5808 5810 5812 5813 5815 5816 5817 5818 5819 5820 5821 5822 5822 5823 5823 5823 5824 5824 5824 5824 5824 5824 5825 5826 5826 5827 5827 5828 5829 5829 5830 5830 5831 5831 5832 5832 5833 5834 5834 5835 5835 5835 5835 5836 5836 5836 5836 5836 5836 5836 5836 5836 5836 5837 5837 5837 5837 5837 5837 5837 5837 5837 5836 5836 5835 5835 5835 5835 5835 5834 5834 5833 5833 5832 5831
5807 5805 5803 5802 5802 5801 5801 5803 5806 5807 5808 5810 5811 5813 5814 5815 5817 5818 5819 5819 5820 5821 5821 5822 5822 5823 5823 5823 5823 5823 5823 5823 5824 5825 5825 5826 5827 5827 5828 5828 5829 5829 5830 5830 5831 5831 5832 5833 5834 5834 5834 5834 5834 5835 5835 5835 5835 5836 5836 5836 5835 5835 5835 5835 5835 5835 5835 5835 5835 5836 5836 5835 5835 5835 5834 5834 5833 5833 5833 5833 5833 5832 5831 5831 5830
5807 5805 5804 5803 5803 5803 5803 5805 5807 5808 5809 5810 5811 5813 5814 5815 5816 5817 5818 5819 5819 5820 5820 5821 5821 5822 5822 5822 5823 5823 5823 5823 5823 5823 5824 5825 5826 5827 5827 5828 5828 5828 5829 5829 5830 5830 5831 5832 5833 5833 5834 5834 5834 5834 5834 5835 5834 5834 5835 5835 5835 5834 5834 5834 5834 5834 5834 5834 5834 5834 5834 5834 5834 5833 5833 5832 5832 5832 5832 5832 5832 5831 5830 5829 5828
5808 5806 5805 5804 5804 5805 5805 5807 5808 5809 5810 5811 5812 5813 5814 5815 5816 5817 5817 5818 5818 5819 5820 5820 5821 5821 5821 5822 5822 5822 5822 5822 5822 5822 5823 5823 5824 5825 5826 5827 5827 5828 5828 5828 5829 5829 5830 5831 5832 5832 5833 5833 5833 5833 5833 5833 5833 5833 5833 5833 5833 5833 5833 5833 5833 5833 5833 5833 5833 5833 5833 5833 5832 5832 5832 5831 5831 5831 5831 5831 5830 5830 5829 5828 5827
5808 5807 5806 5805 5805 5806 5806 5807 5808 5809 5810 5811 5812 5813 5813 5814 5814 5815 5816 5817 5817 5818 5819 5819 5820 5820 5821 5821 5821 5821 5821 5821 5821 5821 5822 5822 5823 5824 5825 5826 5826 5827 5827 5827 5827 5828 5828 5829 5830 5831 5832 5832 5833 5832 5832 5832 5832 5832 5832 5832 5832 5832 5832 5832 5832 5832 5832 5832 5832 5832 5831 5831 5831 5831 5831 5831 5830 5830 5830 5830 5829 5829 5828 5827 5826
5808 5808 5807 5806 5806 5806 5807 5808 5808 5809 5810 5811 5811 5812 5812 5813 5813 5814 5814 5815 5816 5817 5818 5818 5819 5819 5820 5820 5821 5821 5821 5821 5821 5821 5821 5821 5821 5822 5823 5824 5825 5826 5826 5827 5827 5827 5827 5827 5828 5829 5830 5831 5832 5832 5831 5831 5831 5831 5831 5831 5831 5830 5830 5831 5831 5831 5831 5831 5830 5830 5830 5830 5830 5830 5830 5830 5829 5829 5829 5829 5828 5827 5827 5826 5825
5808 5807 5807 5806 5806 5806 5807 5808 5809 5809 5810 5810 5811 5811 5812 5812 5812 5813 5814 5814 5815 5816 5817 5817 5818 5818 5819 5819 5820 5820 5820 5820 5820 5820 5820 5820 5821 5821 5821 5822 5823 5824 5825 5825 5826 5826 5826 5826 5827 5827 5828 5829 5830 5830 5830 5830 5830 5830 5830 5830 5830 5829 5829 5829 5829 5830 5829 5829 5829 5828 5828 5828 5828 5828 5828 5828 5828 5828 5828 5827 5826 5826 5825 5824 5823
5807 5807 5807 5807 5807 5807 5807 5808 5809 5809 5810 5810 5811 5811 5811 5812 5812 5813 5813 5814 5815 5816 5816 5816 5817 5817 5818 5819 5819 5820 5820 5819 5819 5819 5819 5819 5820 5820 5821 5821 5822 5823 5824 5824 5824 5825 5825 5825 5825 5826 5826 5827 5828 5828 5828 5828 5828 5829 5829 5829 5829 5828 5828 5828 5828 5828 5828 5828 5827 5827 5827 5826 5826 5826 5826 5826 5827 5826 5826 5825 5825 5824 5823 5823 5822
5806 5806 5806 5807 5807 5807 5807 5807 5808 5809 5809 5810 5810 5810 5811 5811 5812 5812 5813 5813 5814 5815 5815 5816 5816 5816 5816 5817 5818 5819 5819 5819 5818 5818 5818 5819 5819 5819 5820 5820 5821 5822 5822 5823 5823 5823 5823 5824 5824 5824 5824 5824 5825 5825 5826 5826 5826 5827 5827 5827 5827 5827 5826 5826 5826 5826 5826 5826 5826 5825 5825 5825 5825 5825 5825 5825 5825 5825 5824 5824 5823 5822 5822 5821 5821
5805 5805 5806 5806 5806 5806 5806 5807 5807 5808 5808 5809 5809 5809 5810 5810 5811 5811 5812 5812 5813 5814 5814 5815 5815 5815 5815 5816 5816 5817 5817 5817 5817 5817 5817 5817 5818 5818 5819 5819 5820 5821 5821 5821 5822 5822 5822 5822 5822 5822 5822 5822 5823 5823 5824 5824 5824 5825 5825 5825 5825 5825 5825 5825 5825 5825 5825 5825 5824 5824 5824 5824 5823 5823 5823 5823 5823 5823 5823 5822 5821 5821 5820 5820 5819
5804 5804 5805 5805 5805 5806 5806 5806 5807 5807 5807 5808 5808 5809 5809 5810 5810 5810 5811 5811 5812 5813 5813 5814 5814 5813 5813 5814 5814 5815 5815 5816 5816 5815 5815 5815 5816 5816 5817 5817 5818 5819 5819 5819 5820 5820 5820 5820 5821 5821 5821 5820 5820 5821 5821 5822 5822 5822 5823 5823 5823 5823 5823 5823 5823 5823 5823 5823 5822 5822 5822 5822 5822 5821 5821 5821 5821 5821 5821 5821 5820 5819 5819 5818 5818
5803 5803 5804 5804 5804 5805 5805 5805 5806 5806 5807 5807 5807 5808 5809 5809 5810 5810 5810 5810 5811 5811 5812 5812 5812 5811 5811 5811 5812 5813 5813 5814 5814 5814 5814 5813 5813 5814 5814 5815 5815 5816 5816 5817 5817 5818 5818 5819 5819 5819 5819 5819 5819 5819 5819 5819 5820 5820 5820 5820 5821 5821 5821 5821 5821 5821 5821 5820 5820 5820 5820 5819 5820 5819 5819 5819 5819 5819 5819 5819 5818 5818 5817 5817 5816
5802 5802 5802 5802 5803 5803 5804 5804 5805 5805 5805 5806 5806 5807 5807 5808 5808 5809 5808 5808 5809 5809 5810 5810 5810 5810 5809 5809 5809 5810 5810 5811 5811 5812 5812 5811 5811 5811 5812 5813 5813 5814 5814 5815 5815 5816 5816 5816 5817 5817 5818 5818 5817 5818 5818 5818 5818 5818 5818 5818 5818 5819 5819 5819 5819 5819 5818 5818 5818 5818 5817 5817 5817 5817 5817 5817 5818 5818 5817 5817 5816 5816 5815 5815 5814
5800 5800 5800 5801 5801 5802 5802 5803 5803 5804 5804 5804 5804 5805 5805 5806 5806 5806 5806 5806 5806 5807 5807 5808 5808 5808 5808 5807 5807 5807 5807 5808 5808 5809 5809 5809 5809 5809 5810 5810 5811 5811 5812 5812 5812 5813 5813 5813 5814 5815 5815 5816 5816 5816 5816 5816 5816 5816 5816 5816 5816 5817 5816 5816 5816 5816 5817 5816 5816 5816 5815 5815 5815 5815 5815 5816 5816 5816 5815 5815 5814 5814 5814 5813 5813
5798 5799 5799 5799 5800 5800 5801 5801 5802 5802 5802 5802 5802 5802 5803 5803 5803 5804 5804 5804 5804 5804 5804 5805 5806 5806 5806 5805 5805 5804 5804 5805 5805 5806 5806 5806 5806 5807 5807 5808 5808 5808 5809 5809 5809 5809 5810 5810 5811 5812 5812 5813 5814 5814 5814 5814 5814 5814 5814 5814 5814 5815 5815 5814 5814 5813 5814 5815 5814 5814 5814 5813 5813 5813 5813 5813 5813 5813 5813 5812 5812 5812 5812 5812 5811
5797 5798 5798 5798 5799 5799 5799 5799 5800 5800 5800 5800 5800 5800 5801 5801 5801 5801 5801 5801 5802 5802 5802 5802 5803 5803 5803 5803 5803 5803 5802 5802 5802 5802 5803 5803 5804 5804 5804 5805 5805 5805 5805 5806 5806 5806 5806 5807 5807 5808 5809 5810 5810 5811 5811 5812 5812 5812 5811 5812 5812 5812 5813 5813 5812 5811 5811 5812 5812 5812 5811 5811 5811 5811 5811 5811 5811 5811 5810 5810 5810 5810 5810 5810 5809
5796 5796 5797 5797 5797 5797 5797 5798 5798 5798 5798 5798 5798 5798 5798 5798 5798 5798 5798 5798 5799 5799 5799 5799 5800 5800 5801 5801 5801 5801 5800 5800 5799 5799 5800 5800 5800 5801 5801 5802 5802 5802 5802 5802 5803 5803 5803 5803 5804 5804 5805 5806 5807 5807 5808 5808 5809 5809 5809 5809 5809 5810 5810 5810 5810 5810 5809 5809 5809 5809 5809 5809 5808 5808 5808 5808 5808 5808 5808 5807 5807 5808 5808 5808 5807
5794 5795 5795 5795 5795 5795 5795 5796 5796 5796 5796 5796 5796 5796 5796 5796 5796 5796 5796 5796 5796 5796 5796 5796 5797 5797 5797 5798 5798 5798 5798 5797 5797 5797 5797 5797 5797 5798 5798 5798 5799 5799 5799 5799 5800 5800 5800 5800 5800 5800 5801 5802 5803 5803 5803 5804 5805 5806 5806 5806 5806 5807 5808 5808 5808 5808 5807 5807 5806 5806 5806 5806 5806 5806 5806 5806 5806 5806 5805 5805 5805 5805 5805 5805 5804
5793 5793 5793 5793 5793 5793 5794 5794 5794 5794 5794 5794 5793 5793 5793 5793 5793 5793 5793 5793 5793 5793 5793 5793 5793 5794 5794 5794 5795 5795 5795 5795 5794 5794 5794 5794 5794 5794 5795 5795 5795 5796 5796 5796 5796 5796 5796 5796 5797 5797 5797 5798 5798 5798 5799 5800 5801 5802 5802 5803 5803 5803 5804 5805 5805 5806 5805 5804 5804 5804 5804 5804 5804 5803 5803 5803 5804 5803 5803 5803 5803 5803 5803 5802 5801
5791 5791 5791 5792 5792 5792 5792 5792 5792 5792 5791 5791 5791 5791 5791 5791 5791 5791 5791 5791 5791 5791 5791 5791 5790 5791 5791 5791 5791 5792 5792 5792 5792 5791 5791 5791 5791 5791 5791 5792 5792 5792 5792 5792 5793 5793 5793 5793 5793 5794 5794 5794 5794 5794 5795 5796 5797 5798 5798 5799 5799 5799 5800 5801 5802 5802 5802 5802 5801 5801 5801 5801 5801 5801 5801 5801 5801 5801 5800 5800 5801 5801 5800 5799 5799
5790 5790 5790 5790 5790 5790 5790 5790 5790 5789 5789 5789 5789 5789 5789 5789 5788 5788 5788 5788 5788 5788 5788 5788 5788 5788 5788 5788 5788 5788 5788 5788 5788 5788 5788 5788 5788 5788 5788 5788 5788 5788 5788 5789 5789 5789 5789 5790 5790 5791 5791 5791 5790 5790 5791 5792 5792 5793 5793 5795 5796 5795 5796 5797 5798 5798 5798 5798 5798 5798 5798 5799 5799 5798 5798 5799 5799 5798 5798 5798 5798 5798 5798 5797 5797
5788 5788 5788 5788 5788 5788 5788 5788 5788 5787 5787 5787 5787 5787 5787 5786 5786 5786 5786 5786 5786 5785 5785 5785 5785 5785 5785 5785 5785 5785 5785 5785 5785 5785 5785 5785 5784 5785 5785 5785 5785 5785 5785 5785 5785 5786 5786 5786 5787 5787 5788 5788 5788 5787 5786 5787 5787 5787 5789 5791 5791 5791 5792 5793 5793 5794 5794 5795 5795 5795 5795 5796 5796 5796 5796 5797 5797 5796 5795 5795 5794 5794 5795 5795 5795
5786 5786 5786 5786 5786 5786 5786 5786 5786 5785 5785 5785 5785 5784 5784 5784 5783 5783 5783 5783 5782 5782 5781 5781 5781 5781 5781 5782 5782 5781 5781 5781 5781 5781 5781 5781 5781 5781 5781 5781 5781 5781 5781 5782 5782 5782 5782 5782 5783 5784 5784 5784 5784 5784 5783 5782 5782 5783 5784 5786 5786 5787 5788 5788 5788 5790 5791 5791 5791 5791 5792 5793 5793 5793 5793 5793 5793 5793 5792 5792 5792 5791 5792 5792 5792
5784 5784 5784 5784 5784 5784 5784 5784 5784 5783 5783 5782 5782 5781 5781 5780 5780 5780 5779 5779 5778 5778 5777 5777 5777 5777 5777 5777 5777 5777 5777 5777 5778 5778 5778 5778 5778 5778 5778 5777 5777 5777 5777 5778 5778 5778 5778 5778 5779 5779 5780 5780 5780 5780 5779 5778 5779 5779 5780 5781 5781 5783 5784 5784 5784 5785 5786 5786 5787 5788 5788 5789 5789 5789 5790 5790 5789 5789 5789 5789 5789 5789 5789 5789 5789
5782 5782 5782 5782 5782 5782 5782 5781 5781 5780 5780 5779 5778 5778 5777 5777 5776 5776 5775 5775 5774 5774 5774 5773 5773 5773 5773 5773 5773 5773 5773 5774 5774 5774 5774 5774 5774 5774 5774 5774 5773 5773 5774 5774 5774 5774 5775 5775 5775 5775 5776 5776 5776 5776 5775 5774 5775 5776 5776 5776 5777 5778 5779 5780 5780 5782 5782 5782 5783 5784 5784 5785 5785 5786 5786 5786 5786 5785 5785 5785 5785 5786 5786 5786 5786
5780 5780 5780 5780 5779 5779 5779 5778 5778 5777 5776 5776 5775 5774 5774 5773 5772 5772 5772 5771 5770 5770 5770 5770 5770 5769 5769 5770 5770 5770 5770 5770 5770 5770 5770 5771 5771 5770 5770 5770 5770 5770 5770 5770 5771 5771 5771 5772 5772 5772 5772 5772 5772 5772 5771 5770 5771 5772 5772 5772 5772 5773 5774 5775 5776 5778 5779 5779 5778 5779 5780 5780 5781 5782 5783 5782 5782 5782 5782 5782 5782 5782 5782 5782 5782
5778 5778 5778 5777 5776 5776 5775 5775 5774 5773 5773 5772 5771 5771 5770 5770 5769 5769 5768 5768 5767 5767 5766 5766 5766 5766 5766 5766 5766 5766 5767 5767 5767 5767 5767 5767 5767 5767 5767 5767 5767 5767 5767 5767 5768 5768 5769 5769 5769 5770 5769 5769 5769 5769 5768 5767 5767 5768 5768 5767 5768 5769 5769 5770 5771 5772 5774 5776 5776 5774 5775 5776 5777 5778 5778 5778 5779 5779 5779 5779 5779 5779 5779 5779 5779
5776 5776 5776 5775 5774 5773 5772 5771 5770 5770 5769 5768 5768 5768 5767 5767 5766 5766 5766 5765 5765 5764 5764 5763 5763 5763 5763 5764 5763 5763 5763 5763 5763 5763 5763 5763 5763 5763 5764 5763 5764 5764 5764 5764 5765 5765 5766 5766 5766 5766 5766 5766 5765 5765 5764 5764 5764 5764 5764 5764 5764 5765 5765 5765 5766 5767 5769 5772 5773 5771 5770 5771 5773 5775 5775 5774 5775 5776 5776 5776 5776 5776 5776 5776 5777
5774 5774 5773 5772 5771 5770 5769 5768 5767 5766 5765 5765 5764 5764 5764 5764 5764 5764 5763 5762 5762 5762 5761 5761 5761 5761 5761 5761 5760 5760 5760 5760 5760 5759 5760 5760 5760 5760 5761 5761 5761 5761 5761 5762 5762 5762 5762 5763 5763 5763 5763 5762 5761 5761 5760 5760 5760 5760 5760 5760 5761 5761 5761 5761 5761 5762 5763 5766 5768 5768 5766 5767 5769 5771 5771 5771 5771 5772 5772 5772 5772 5772 5773 5774 5774
5772 5771 5770 5769 5768 5766 5765 5764 5763 5762 5762 5762 5762 5762 5761 5761 5761 5761 5761 5760 5760 5759 5759 5759 5758 5758 5758 5758 5757 5757 5757 5757 5756 5756 5757 5757 5757 5757 5757 5758 5758 5758 5758 5758 5759 5759 5759 5759 5759 5759 5758 5758 5757 5757 5756 5756 5756 5756 5756 5756 5757 5757 5757 5757 5757 5757 5758 5759 5761 5763 5763 5763 5765 5766 5766 5766 5768 5768 5768 5768 5768 5768 5770 5771 5771